EW4529 Weather Reports


Display with metric or nautical units.
time (UTC)temp
F
wind
direction
speed
MPH
gust
MPH
rain 1hr
in
rain 24hr
in
rain mn
in
humidity
%
barometer
mb
20260505011315 64 322 0.0 3.0 0.00 0.00 0.00 52 1010.6
20260505010319 64 150 1.0 4.0 0.00 0.00 0.00 51 1010.5
20260505005314 64 131 0.0 3.0 0.00 0.00 0.00 52 1010.5
20260505004310 64 105 0.0 1.0 0.00 0.00 0.00 51 1010.3
20260505003311 65 108 0.0 1.0 0.00 0.00 0.00 48 1010.2
20260505002344 66 320 0.0 3.0 0.00 0.00 0.00 47 1010.1
20260505001324 66 98 0.0 1.0 0.00 0.00 0.00 46 1010.1
20260505000315 67 117 0.0 2.0 0.00 0.00 0.00 43 1010.0
20260504235312 68 131 0.0 2.0 0.00 0.00 0.00 42 1010.0
20260504234356 69 111 0.0 2.0 0.00 0.00 0.00 41 1009.9
20260504233325 69 167 1.0 4.0 0.00 0.00 0.00 40 1009.9
20260504232322 69 147 0.0 3.0 0.00 0.00 0.00 40 1009.8
20260504231319 70 133 0.0 2.0 0.00 0.00 0.00 39 1009.8
20260504230309 70 146 0.0 7.0 0.00 0.00 0.00 38 1009.9
20260504225326 70 130 1.0 7.0 0.00 0.00 0.00 38 1009.9
20260504224324 71 359 0.0 5.0 0.00 0.00 0.00 37 1009.9
20260504223315 71 160 0.0 8.0 0.00 0.00 0.00 37 1009.9
20260504222312 71 113 2.0 10.0 0.00 0.00 0.00 36 1009.9
20260504221335 72 135 0.0 7.0 0.00 0.00 0.00 37 1009.8
20260504220324 72 177 2.0 8.0 0.00 0.00 0.00 35 1009.9
20260504215322 73 58 0.0 9.0 0.00 0.00 0.00 35 1010.0
20260504214318 73 264 0.0 4.0 0.00 0.00 0.00 34 1010.1
20260504213310 74 132 0.0 10.0 0.00 0.00 0.00 33 1010.1
20260504212312 74 229 0.0 6.0 0.00 0.00 0.00 32 1010.1
20260504211308 75 195 1.0 5.0 0.00 0.00 0.00 31 1010.1
20260504210325 75 120 2.0 5.0 0.00 0.00 0.00 32 1010.0
20260504205325 76 167 1.0 7.0 0.00 0.00 0.00 32 1010.1
20260504204325 75 47 1.0 10.0 0.00 0.00 0.00 31 1010.1
20260504203319 75 21 2.0 6.0 0.00 0.00 0.00 33 1010.0
20260504202319 75 282 3.0 11.0 0.00 0.00 0.00 32 1010.2
20260504201319 75 293 2.0 9.0 0.00 0.00 0.00 31 1010.2
20260504200314 76 304 0.0 7.0 0.00 0.00 0.00 33 1010.3
20260504195314 75 115 2.0 10.0 0.00 0.00 0.00 31 1010.4
20260504194314 75 122 2.0 8.0 0.00 0.00 0.00 30 1010.4
20260504193335 75 333 1.0 8.0 0.00 0.00 0.00 32 1010.5
20260504192312 75 276 3.0 8.0 0.00 0.00 0.00 30 1010.7
20260504191310 76 328 2.0 8.0 0.00 0.00 0.00 30 1010.7
20260504190331 75 137 2.0 9.0 0.00 0.00 0.00 31 1010.8
20260504185313 75 73 0.0 9.0 0.00 0.00 0.00 32 1011.0
20260504184334 75 296 1.0 6.0 0.00 0.00 0.00 32 1011.2
20260504183334 75 359 2.0 7.0 0.00 0.00 0.00 29 1011.3
20260504182323 74 114 1.0 8.0 0.00 0.00 0.00 32 1011.6
20260504181326 74 106 3.0 6.0 0.00 0.00 0.00 29 1011.7
20260504180308 74 260 1.0 6.0 0.00 0.00 0.00 29 1011.9
20260504175310 75 119 1.0 6.0 0.00 0.00 0.00 29 1012.0
20260504174332 74 123 1.0 7.0 0.00 0.00 0.00 30 1012.1
20260504173312 74 28 1.0 8.0 0.00 0.00 0.00 32 1012.2
20260504172311 74 160 2.0 5.0 0.00 0.00 0.00 31 1012.3
20260504171331 73 316 2.0 9.0 0.00 0.00 0.00 32 1012.4
20260504170326 72 156 2.0 8.0 0.00 0.00 0.00 30 1012.6
20260504160322 73 49 1.0 7.0 0.00 0.00 0.00 33 1013.4
20260504150320 68 250 0.0 8.0 0.00 0.00 0.00 41 1013.9
20260504141318 63 56 1.0 4.0 0.00 0.00 0.00 56 1014.0
20260504140314 63 269 1.0 8.0 0.00 0.00 0.00 55 1014.2
20260504130317 60 248 2.0 5.0 0.00 0.00 0.00 63 1014.6
20260504110312 45 96 0.0 0.0 0.00 0.00 0.00 89 1015.1
20260504100315 43 146 0.0 0.0 0.00 0.00 0.00 86 1015.2
20260504081309 42 261 0.0 0.0 0.00 0.00 0.00 78 1015.0
20260504080325 43 261 0.0 0.0 0.00 0.00 0.00 76 1014.9
20260504050323 47 143 0.0 0.0 0.00 0.00 0.00 62 1014.7
20260504045321 47 143 0.0 0.0 0.00 0.00 0.00 61 1014.7
20260504044341 47 143 0.0 0.0 0.00 0.00 0.00 60 1014.6
20260504043323 48 231 0.0 0.0 0.00 0.00 0.00 60 1014.6
20260504042340 48 290 0.0 0.0 0.00 0.00 0.00 58 1014.4
20260504041320 48 134 0.0 1.0 0.00 0.00 0.00 58 1014.4
20260504040314 48 137 0.0 0.0 0.00 0.00 0.00 58 1014.2
20260504035315 48 256 0.0 2.0 0.00 0.00 0.00 58 1014.2
20260504034316 48 135 0.0 1.0 0.00 0.00 0.00 58 1014.2
20260504033316 48 305 0.0 1.0 0.00 0.00 0.00 59 1014.1
20260504032316 48 290 0.0 1.0 0.00 0.00 0.00 59 1014.1
20260504031317 48 224 0.0 0.0 0.00 0.00 0.00 59 1014.1
20260504030313 48 226 0.0 1.0 0.00 0.00 0.00 60 1014.0
20260504025310 48 320 0.0 0.0 0.00 0.00 0.00 59 1014.1
20260504024314 48 320 0.0 2.0 0.00 0.00 0.00 59 1014.2
20260504023314 48 120 0.0 0.0 0.00 0.00 0.00 59 1014.2
20260504022338 48 120 0.0 0.0 0.00 0.00 0.00 60 1014.1
20260504021319 48 119 0.0 0.0 0.00 0.00 0.00 60 1014.1
20260504020327 48 119 0.0 1.0 0.00 0.00 0.00 60 1014.1
20260504015350 48 122 0.0 0.0 0.00 0.00 0.00 59 1014.0
20260504014350 49 122 0.0 0.0 0.00 0.00 0.00 59 1014.0
20260504013325 49 122 0.0 0.0 0.00 0.00 0.00 58 1013.9
20260504012327 49 122 0.0 0.0 0.00 0.00 0.00 57 1013.8